Location: De Greiden
(52.9496°N, 5.9137°E)
Time: 23:44:58
(UTC+00:00)

Meteor 1-21 Rocket - Pass Details

Date: 24 January 2021
Orbit: 834 x 906 km, 81.2° (Epoch: 01 March)

Event Time Altitude Azimuth Distance (km) Brightness Sun altitude
Rises 17:47:52 0° 183° (S) 3,370 7.5 -15.0°
Reaches altitude 10° 17:50:16 10° 181° (S) 2,441 6.8 -15.3°
Maximum altitude 17:55:45 71° 99° (E) 891 4.1 -16.1°
Drops below altitude 10° 18:01:20 10° 17° (NNE) 2,482 6.4 -17.0°
Sets 18:03:46 0° 15° (NNE) 3,430 7.1 -17.3°
